Tracking 28792 objects as of 25-Apr-2024
HD Live streaming from Space Station
objects crossing your sky now

STARLINK-31349

Track STARLINK-31349 now!
10-day predictions
STARLINK-31349 is classified as:


NORAD ID: 59317
Int'l Code: 2024-056X
Perigee: 426.5 km
Apogee: 431.7 km
Inclination: 43.0 °
Period: 93.0 minutes
Semi major axis: 6800 km
RCS: Unknown
Launch date: March 24, 2024
Source: United States (US)
Launch site: AIR FORCE EASTERN TEST RANGE (AFETR)
Your satellite tracking list
Your tracking list is empty




NASA's NSSDC Master Catalog

Two Line Element Set (TLE):
1 59317U 24056X   24116.20761388 -.00294961  00000-0 -56669-2 0  9998
2 59317  42.9995 172.2854 0003824 301.9778  58.0710 15.48212133  6205
Source of the keplerian elements: AFSPC